FW8329 Weather Reports


Display with metric or nautical units.
time (UTC)temp
F
wind
direction
speed
MPH
gust
MPH
rain 1hr
in
rain 24hr
in
rain mn
in
humidity
%
barometer
mb
20260508003030 60 98 0.0 3.0 0.00 0.00 0.00 45 1003.0
20260508001530 58 233 0.0 3.0 0.00 0.00 0.00 50 1002.9
20260508000031 60 200 2.0 6.0 0.00 0.00 0.00 43 1002.8
20260507234528 58 167 2.0 7.0 0.00 0.00 0.00 47 1003.0
20260507233031 58 48 2.0 7.0 0.00 0.00 0.00 47 1002.7
20260507231530 58 83 1.0 4.0 0.00 0.00 0.00 48 1002.6
20260507230040 59 170 0.0 7.0 0.00 0.00 0.00 46 1002.5
20260507224530 59 65 0.0 9.0 0.00 0.00 0.00 45 1002.6
20260507223045 61 351 5.0 13.0 0.00 0.00 0.00 41 1002.4
20260507221523 61 191 6.0 11.0 0.00 0.00 0.00 40 1002.5
20260507220022 62 81 2.0 8.0 0.00 0.00 0.00 42 1002.6
20260507214517 60 139 6.0 13.0 0.00 0.00 0.00 43 1002.7
20260507213017 59 246 2.0 7.0 0.00 0.00 0.00 48 1003.0
20260507211515 57 145 1.0 10.0 0.00 0.00 0.00 50 1003.2
20260507210017 57 101 3.0 9.0 0.00 0.00 0.00 50 1003.4
20260507204513 57 192 4.0 7.0 0.00 0.00 0.00 47 1003.3
20260507203113 58 73 3.0 10.0 0.00 0.00 0.00 45 1003.1
20260507201512 59 198 2.0 12.0 0.00 0.00 0.00 44 1003.1
20260507200016 60 92 1.0 12.0 0.00 0.00 0.00 43 1003.1
20260507194509 60 77 2.0 9.0 0.00 0.00 0.00 40 1003.2
20260507193018 58 206 2.0 13.0 0.00 0.00 0.00 44 1003.3
20260507191505 58 236 2.0 5.0 0.00 0.00 0.00 48 1003.4
20260507190003 55 79 1.0 6.0 0.00 0.00 0.00 48 1003.6
20260507184558 55 103 2.0 7.0 0.00 0.00 0.00 52 1003.9
20260507183058 55 66 0.0 9.0 0.00 0.00 0.00 50 1004.2
20260507181605 55 250 1.0 4.0 0.00 0.00 0.00 47 1004.1
20260507180057 55 41 0.0 5.0 0.00 0.00 0.00 44 1004.3
20260507174602 55 142 3.0 9.0 0.00 0.00 0.00 45 1004.2
20260507173059 54 122 5.0 10.0 0.00 0.00 0.00 46 1004.4
20260507171603 54 211 2.0 6.0 0.00 0.00 0.00 47 1004.3
20260507170054 54 213 5.0 11.0 0.00 0.00 0.00 45 1004.4
20260507164553 55 200 5.0 12.0 0.00 0.00 0.00 44 1004.3
20260507163052 55 197 1.0 8.0 0.00 0.00 0.00 44 1004.5
20260507161559 55 182 3.0 11.0 0.00 0.00 0.00 47 1004.5
20260507160048 54 208 3.0 9.0 0.00 0.00 0.00 49 1004.5
20260507154547 54 158 2.0 7.0 0.00 0.00 0.00 49 1004.6
20260507153106 54 146 3.0 6.0 0.00 0.00 0.00 50 1004.6
20260507151542 52 162 1.0 4.0 0.00 0.00 0.00 53 1004.8
20260507150049 52 72 2.0 8.0 0.00 0.00 0.00 54 1004.8
20260507144541 52 185 3.0 10.0 0.00 0.00 0.00 56 1004.7
20260507143040 50 212 2.0 6.0 0.00 0.00 0.00 64 1004.7
20260507141539 45 205 0.0 1.0 0.00 0.00 0.00 72 1004.9
20260507140039 42 239 0.0 2.0 0.00 0.00 0.00 78 1005.0
20260507134538 40 2 0.0 1.0 0.00 0.00 0.00 80 1005.0
20260507133038 40 173 0.0 3.0 0.00 0.00 0.00 79 1004.8
20260507131537 38 274 3.0 6.0 0.00 0.00 0.00 84 1004.6
20260507130054 36 255 0.0 2.0 0.00 0.00 0.00 88 1004.7
20260507124534 35 271 0.0 1.0 0.00 0.00 0.00 86 1004.7
20260507123033 36 9 0.0 1.0 0.00 0.00 0.00 85 1004.6
20260507121527 38 28 0.0 1.0 0.00 0.00 0.00 84 1004.6
20260507120033 39 255 0.0 2.0 0.00 0.00 0.00 82 1004.3
20260507114524 40 223 0.0 4.0 0.00 0.00 0.00 82 1004.2
20260507113023 39 236 0.0 2.0 0.00 0.00 0.00 83 1004.1
20260507111519 39 251 0.0 1.0 0.00 0.00 0.00 80 1004.2
20260507110015 41 210 0.0 1.0 0.00 0.00 0.00 78 1004.4
20260507104509 43 210 0.0 1.0 0.00 0.00 0.00 75 1004.6
20260507103005 44 210 0.0 0.0 0.00 0.00 0.00 72 1004.7
20260507101504 47 210 0.0 0.0 0.00 0.00 0.00 68 1005.0
20260507100003 49 66 0.0 1.0 0.00 0.00 0.00 65 1005.2
20260507094501 51 79 2.0 10.0 0.00 0.00 0.00 62 1005.3
20260507093102 52 64 0.0 7.0 0.00 0.00 0.00 57 1005.3
20260507091600 52 207 3.0 9.0 0.00 0.00 0.00 57 1004.7
20260507090100 52 294 3.0 11.0 0.00 0.00 0.00 56 1004.7
20260507084601 52 231 3.0 10.0 0.00 0.00 0.00 55 1004.4
20260507083112 52 121 7.0 13.0 0.00 0.00 0.00 54 1004.6
20260507081601 51 229 4.0 10.0 0.00 0.00 0.00 56 1004.7
20260507080054 52 251 4.0 9.0 0.00 0.00 0.00 54 1005.0
20260507074558 52 210 4.0 11.0 0.00 0.00 0.00 54 1004.9
20260507073059 50 212 4.0 11.0 0.00 0.00 0.00 57 1004.9
20260507071549 49 250 0.0 5.0 0.00 0.00 0.00 60 1005.1
20260507070047 47 201 3.0 8.0 0.00 0.00 0.00 64 1005.1
20260507064544 45 266 0.0 5.0 0.00 0.00 0.00 67 1005.0
20260507063047 46 230 2.0 5.0 0.00 0.00 0.00 66 1005.1
20260507061537 47 248 0.0 4.0 0.00 0.00 0.00 63 1005.3
20260507060035 48 275 1.0 5.0 0.00 0.00 0.00 63 1005.4
20260507054539 48 249 0.0 3.0 0.00 0.00 0.00 63 1005.5
20260507053033 47 203 0.0 2.0 0.00 0.00 0.00 66 1005.6
20260507051534 47 219 0.0 1.0 0.00 0.00 0.00 63 1005.6
20260507050036 49 226 0.0 0.0 0.00 0.00 0.00 61 1005.6
20260507044537 49 226 0.0 1.0 0.00 0.00 0.00 60 1005.7
20260507043030 50 236 0.0 1.0 0.00 0.00 0.00 57 1005.7
20260507041536 52 219 0.0 1.0 0.00 0.00 0.00 56 1005.8
20260507040029 53 210 0.0 1.0 0.00 0.00 0.00 52 1005.7
20260507034528 55 242 1.0 8.0 0.00 0.00 0.00 48 1005.7
20260507033029 56 150 5.0 13.0 0.00 0.00 0.00 48 1006.2
20260507031528 56 152 4.0 10.0 0.00 0.00 0.00 49 1006.1
20260507030025 56 169 1.0 7.0 0.00 0.00 0.00 48 1006.1
20260507024524 56 233 3.0 6.0 0.00 0.00 0.00 48 1006.1
20260507023023 56 181 2.0 8.0 0.00 0.00 0.00 47 1006.2
20260507021523 57 152 3.0 10.0 0.00 0.00 0.00 46 1006.2
20260507020024 57 160 2.0 10.0 0.00 0.00 0.00 46 1006.3
20260507014532 58 205 3.0 9.0 0.00 0.00 0.00 44 1006.4
20260507013025 60 176 8.0 19.0 0.00 0.00 0.00 41 1006.5
20260507011521 61 63 3.0 12.0 0.00 0.00 0.00 36 1006.2
20260507010020 61 86 1.0 7.0 0.00 0.00 0.00 37 1006.5
20260507004530 62 135 1.0 11.0 0.00 0.00 0.00 36 1006.5